Regional Weather Roundup
Issued by NWS

Home | Current Version | Previous Version | Text Only | Print | Product List | Glossary On
Versions: 1 2 3 4 5 6 7 8 9 10 11 12 13 14 15 16 17 18 19 20 21 22 23 24 25 26 27 28 29 30 31 32 33 34 35 36 37 38 39 40 41 42 43 44 45 46 47 48 49 50
000
ASUS43 KDTX 282201
RWRMI
MICHIGAN HOURLY REGIONAL WEATHER ROUNDUP
NATIONAL WEATHER SERVICE DETROIT/PONTIAC MI
600 PM EDT SUN MAY 28 2017

NOTE: "FAIR" INDICATES FEW OR NO CLOUDS BELOW 12,000 FEET WITH NO
SIGNIFICANT WEATHER AND/OR OBSTRUCTION TO VISIBILITY.

MIZ047>049-052>055-059>063-066>070-074>076-081>083-282300-
SOUTHEAST LOWER MICHIGAN

CITY           SKY/WX    TMP DP  RH WIND       PRES   REMARKS
ADRIAN         LGT RAIN  64  62  93 SE8       29.69F
ALMA           CLOUDY    76  57  51 W6        29.65F
ANN ARBOR      LGT RAIN  65  63  93 SE8       29.67R
BAD AXE        MOSUNNY   74  57  55 SE3       29.66F
CARO           CLOUDY    78  56  47 CALM      29.63F
DETROIT CITY   LGT RAIN  69  66  90 SE15      29.65F
DETROIT        LGT RAIN  64  62  93 S16       29.68F
FLINT          CLOUDY    74  60  61 S7        29.65F
GROSSE ILE     RAIN      62  59  91 S14G20    29.71R VSB 3/4
HILLSDALE      LGT RAIN  64  59  82 S5        29.69S
HOWELL         RAIN      69  64  86 N3        29.67R

CITY           SKY/WX    TMP DP  RH WIND       PRES   REMARKS
JACKSON        LGT RAIN  69  61  75 S9        29.67R
LAMBERTVILLE   PTSUNNY   60  58  94 SE6       29.71F
LANSING        MOSUNNY   79  57  46 NW10      29.64F
LAPEER         PTSUNNY   76  59  56 SE7       29.66F
MASON          CLOUDY    77  64  63 S6        29.65S
MONROE         LGT RAIN  62  60  91 SE9       29.70F
MT. CLEMENS    LGT RAIN  70  65  85 E9        29.65F
PONTIAC        LGT RAIN  73  63  70 SE7       29.65F
PORT HOPE        N/A     63  57  81 E13       29.66F
PORT HURON     CLOUDY    73  61  64 S9        29.68S
TRI CITIES     MOSUNNY   78  58  49 W6        29.64F
MIDLAND        FAIR      77  56  47 W3        29.64S
TROY           CLOUDY    73  59  61 SE3       29.67F
SAGINAW HB     CLOUDY    79  50  36 W9        29.63F
$$
MIZ043>046-050>051-056>058-064>065-071>073-077>080-282300-
SOUTHWEST LOWER MICHIGAN

CITY           SKY/WX    TMP DP  RH WIND       PRES   REMARKS
BATTLE CREEK   MOSUNNY   75  59  57 NW9       29.67F
BENTON HARBOR  SUNNY     65  55  70 VRB7      29.73R
BIG RAPIDS     PTSUNNY   71  55  57 W13G20    29.67F
COLDWATER      PTSUNNY   68  64  86 SE6       29.68R
FREMONT        FAIR      71  53  53 W15       29.69S
HOLLAND        MOSUNNY   67  55  65 NW10      29.72R
GRAND RAPIDS   PTSUNNY   74  61  63 W15       29.68S
IONIA          FAIR      77  56  47 W13       29.65S
KALAMAZOO      SUNNY     76  58  53 W14       29.68S
LUDINGTON      SUNNY     62  56  81 SW8       29.69S
MARSHALL       MOSUNNY   77  61  56 W7        29.66S
MOUNT PLEASANT MOSUNNY   73  56  55 W5        29.65F
MUSKEGON       MOSUNNY   66  55  67 W9        29.71R
SOUTH HAVEN    CLOUDY    66  57  71 NW9       29.73R
$$
MIZ016>042-282300-
NORTHERN LOWER MICHIGAN

CITY           SKY/WX    TMP DP  RH WIND       PRES   REMARKS
ALPENA         CLOUDY    61  59  93 NE6       29.70S
BEAVER ISLAND  CLOUDY    60  56  85 SE7       29.66S
BELLAIRE       MOSUNNY   66  57  71 W5        29.67R
CADILLAC       PTSUNNY   67  56  67 SW10G16   29.68S
CHARLEVOIX     PTSUNNY   61  58  90 NE3       29.69S
FRANKFORT      SUNNY     63  55  74 SW9       29.67F
GAYLORD        MOSUNNY   66  55  67 VRB6      29.68S
GRAYLING       PTSUNNY   66  59  77 CALM      29.68S
HARBOR SPRINGS SUNNY     63  59  87 E7        29.66F
HOUGHTON LAKE  MOSUNNY   68  58  70 SW6       29.68F
MANISTEE       SUNNY     65  56  72 SW8       29.68S
OSCODA         CLOUDY    69  51  51 SE6       29.66S
ROGERS CITY    CLOUDY    54  53  97 CALM      29.71S FOG
TRAVERSE CITY  PTSUNNY   64  57  78 E3        29.65S
$$
MIZ007>008-015-282300-
EASTERN UPPER MICHIGAN

CITY           SKY/WX    TMP DP  RH WIND       PRES   REMARKS
KINROSS        CLOUDY    58  57  97 SE7       29.67F
MACKINAC ISLAN CLOUDY    53  53 100 E3        29.67S FOG
NEWBERRY       CLOUDY    60  59  97 SE7       29.65R
S. S. MARIE    CLOUDY    58  56  93 E6        29.67F
MUNISING         N/A     64  57  78 SE8       29.61S
$$
MIZ004>006-011>014-085-282300-
CENTRAL UPPER MICHIGAN

CITY           SKY/WX    TMP DP  RH WIND       PRES   REMARKS
MANISTIQUE     CLOUDY    53  50  89 S6        29.65F
ESCANABA       CLOUDY    54  52  93 SE8       29.63F
SAWYER-GWINN   PTSUNNY   54  52  94 N9        29.63R
$$
MIZ001>003-009>011-084-282300-
WESTERN UPPER MICHIGAN

CITY           SKY/WX    TMP DP  RH WIND       PRES   REMARKS
IRON MOUNTAIN  LGT RAIN  59  53  80 N17G25    29.63S
HOUGHTON       LGT RAIN  54  50  86 N3        29.63F
COPPER HARBOR    N/A     54  48  80 N10       29.63R
IRONWOOD       PTSUNNY   61  50  67 NW10      29.65S
$$

ABBREVIATIONS USED IN REMARKS
   TC - TEMPERATURE IN CELSIUS
  WCI - WIND CHILL INDEX
   HX - HEAT INDEX
  VSB - VISIBILITY




USA.gov is the U.S. government's official web portal to all federal, state and local government web resources and services.